Time,TemperatureF,DewpointF,PressureIn,WindDirection,WindDirectionDegrees,WindSpeedMPH,WindSpeedGustMPH,Humidity,HourlyPrecipIn,Conditions,Clouds,dailyrainin,SoftwareType,DateUTC
2013-02-12 00:00:00,32.2,17.0,29.92,NW,307,8.1,8.1,53,0.00,,---,0.00,VWS V14.01,2013-02-12 05:00:00,
2013-02-12 00:01:00,32.2,17.0,29.92,NNE,19,4.9,8.1,53,0.00,,---,0.00,VWS V14.01,2013-02-12 05:01:00,
2013-02-12 00:03:00,32.2,17.0,29.92,NE,35,3.6,10.5,53,0.00,,---,0.00,VWS V14.01,2013-02-12 05:03:00,
2013-02-12 00:08:00,32.2,16.5,29.92,WNW,301,3.1,10.5,52,0.00,,---,0.00,VWS V14.01,2013-02-12 05:08:00,
2013-02-12 00:13:00,32.2,16.5,29.92,North,353,3.1,14.1,52,0.00,,---,0.00,VWS V14.01,2013-02-12 05:13:00,
2013-02-12 00:15:00,32.2,16.5,29.92,North,0,4.0,14.1,52,0.00,,---,0.00,VWS V14.01,2013-02-12 05:15:00,
2013-02-12 00:20:00,32.0,15.8,29.92,NW,326,2.2,14.1,51,0.00,,---,0.00,VWS V14.01,2013-02-12 05:20:00,
2013-02-12 00:25:00,32.0,16.3,29.92,North,353,2.2,14.1,52,0.00,,---,0.00,VWS V14.01,2013-02-12 05:25:00,
2013-02-12 00:30:00,32.0,15.8,29.92,North,2,3.1,14.1,51,0.00,,---,0.00,VWS V14.01,2013-02-12 05:30:00,
2013-02-12 00:35:00,32.0,16.3,29.92,North,353,0.0,14.1,52,0.00,,---,0.00,VWS V14.01,2013-02-12 05:35:00,
2013-02-12 00:40:00,32.0,16.3,29.92,West,261,2.2,14.1,52,0.00,,---,0.00,VWS V14.01,2013-02-12 05:40:00,
2013-02-12 00:45:00,32.0,15.8,29.92,WNW,284,2.7,14.1,51,0.00,,---,0.00,VWS V14.01,2013-02-12 05:45:00,
2013-02-12 00:51:00,31.8,15.7,29.92,NW,322,4.0,14.1,51,0.00,,---,0.00,VWS V14.01,2013-02-12 05:51:00,
2013-02-12 00:56:00,32.0,15.8,29.92,West,280,4.0,14.1,51,0.00,,---,0.00,VWS V14.01,2013-02-12 05:56:00,
2013-02-12 01:01:00,31.8,15.7,29.95,WSW,256,0.0,4.9,51,0.00,,---,0.00,VWS V14.01,2013-02-12 06:01:00,
2013-02-12 01:06:00,31.8,15.7,29.95,North,6,0.0,8.1,51,0.00,,---,0.00,VWS V14.01,2013-02-12 06:06:00,
2013-02-12 01:11:00,31.8,15.7,29.95,WSW,249,0.0,8.1,51,0.00,,---,0.00,VWS V14.01,2013-02-12 06:11:00,
2013-02-12 01:16:00,31.8,15.7,29.95,NNW,328,0.0,8.1,51,0.00,,---,0.00,VWS V14.01,2013-02-12 06:16:00,
2013-02-12 01:21:00,31.8,15.7,29.95,West,278,3.1,8.1,51,0.00,,---,0.00,VWS V14.01,2013-02-12 06:21:00,
2013-02-12 01:26:00,32.0,15.8,29.95,NNW,343,0.0,8.1,51,0.00,,---,0.00,VWS V14.01,2013-02-12 06:26:00,
2013-02-12 01:31:00,31.8,14.7,29.95,NW,325,0.0,8.1,49,0.00,,---,0.00,VWS V14.01,2013-02-12 06:31:00,
2013-02-12 01:36:00,31.8,14.7,29.95,NNW,329,3.1,8.1,49,0.00,,---,0.00,VWS V14.01,2013-02-12 06:36:00,
2013-02-12 01:41:00,31.8,14.7,29.95,NNW,342,0.0,8.1,49,0.00,,---,0.00,VWS V14.01,2013-02-12 06:41:00,
2013-02-12 01:46:00,31.8,15.2,29.95,WSW,255,0.0,8.1,50,0.00,,---,0.00,VWS V14.01,2013-02-12 06:46:00,
2013-02-12 01:51:00,31.8,15.2,29.95,North,350,2.2,8.1,50,0.00,,---,0.00,VWS V14.01,2013-02-12 06:51:00,
2013-02-12 01:56:00,31.8,15.7,29.95,West,261,4.0,8.1,51,0.00,,---,0.00,VWS V14.01,2013-02-12 06:56:00,
2013-02-12 02:01:00,31.8,15.7,29.95,North,8,0.0,3.6,51,0.00,,---,0.00,VWS V14.01,2013-02-12 07:01:00,
2013-02-12 02:06:00,31.6,15.5,29.95,WNW,297,4.9,6.7,51,0.00,,---,0.00,VWS V14.01,2013-02-12 07:06:00,
2013-02-12 02:11:00,31.6,15.5,29.95,North,353,0.0,8.1,51,0.00,,---,0.00,VWS V14.01,2013-02-12 07:11:00,
2013-02-12 02:16:00,31.6,15.5,29.95,West,280,5.4,8.1,51,0.00,,---,0.00,VWS V14.01,2013-02-12 07:16:00,
2013-02-12 02:21:00,31.6,15.5,29.95,North,357,3.1,8.1,51,0.00,,---,0.00,VWS V14.01,2013-02-12 07:21:00,
2013-02-12 02:26:00,31.6,15.5,29.95,WSW,253,4.0,8.1,51,0.00,,---,0.00,VWS V14.01,2013-02-12 07:26:00,
2013-02-12 02:31:00,31.6,15.5,29.95,NW,322,2.7,8.1,51,0.00,,---,0.00,VWS V14.01,2013-02-12 07:31:00,
2013-02-12 02:36:00,31.6,15.0,29.95,NE,49,3.1,8.1,50,0.00,,---,0.00,VWS V14.01,2013-02-12 07:36:00,
2013-02-12 02:41:00,31.6,15.0,29.95,WNW,299,2.7,8.3,50,0.00,,---,0.00,VWS V14.01,2013-02-12 07:41:00,
2013-02-12 02:46:00,31.6,14.5,29.95,NNE,33,5.8,8.3,49,0.00,,---,0.00,VWS V14.01,2013-02-12 07:46:00,
2013-02-12 02:51:00,31.6,15.0,29.95,NNW,342,3.1,8.3,50,0.00,,---,0.00,VWS V14.01,2013-02-12 07:51:00,
2013-02-12 02:56:00,31.6,15.0,29.95,North,353,0.0,8.7,50,0.00,,---,0.00,VWS V14.01,2013-02-12 07:56:00,
2013-02-12 03:01:00,31.6,15.0,29.98,NNW,345,2.2,4.5,50,0.00,,---,0.00,VWS V14.01,2013-02-12 08:01:00,
2013-02-12 03:06:00,31.6,15.5,29.98,NNE,20,0.0,8.3,51,0.00,,---,0.00,VWS V14.01,2013-02-12 08:06:00,
2013-02-12 03:11:00,31.5,15.8,29.98,North,357,3.6,8.3,52,0.00,,---,0.00,VWS V14.01,2013-02-12 08:11:00,
2013-02-12 03:16:00,31.5,15.8,29.98,NNW,336,0.0,8.3,52,0.00,,---,0.00,VWS V14.01,2013-02-12 08:16:00,
2013-02-12 03:21:00,31.5,16.3,29.98,North,1,0.0,8.3,53,0.00,,---,0.00,VWS V14.01,2013-02-12 08:21:00,
2013-02-12 03:26:00,31.5,15.8,29.98,NNW,335,0.0,8.3,52,0.00,,---,0.00,VWS V14.01,2013-02-12 08:26:00,
2013-02-12 03:31:00,31.5,15.8,29.98,North,357,0.0,8.3,52,0.00,,---,0.00,VWS V14.01,2013-02-12 08:31:00,
2013-02-12 03:36:00,31.5,15.8,29.98,North,4,0.0,8.3,52,0.00,,---,0.00,VWS V14.01,2013-02-12 08:36:00,
2013-02-12 03:41:00,31.5,16.8,29.98,North,6,3.6,8.3,54,0.00,,---,0.00,VWS V14.01,2013-02-12 08:41:00,
2013-02-12 03:46:00,31.3,16.6,29.98,West,271,0.0,8.3,54,0.00,,---,0.00,VWS V14.01,2013-02-12 08:46:00,
2013-02-12 03:52:00,31.3,16.6,29.98,NW,325,0.0,8.3,54,0.00,,---,0.00,VWS V14.01,2013-02-12 08:52:00,
2013-02-12 03:57:00,31.3,17.0,29.98,West,279,0.0,8.3,55,0.00,,---,0.00,VWS V14.01,2013-02-12 08:57:00,
2013-02-12 04:02:00,31.3,16.6,29.98,WSW,237,0.0,7.2,54,0.00,,---,0.00,VWS V14.01,2013-02-12 09:02:00,
2013-02-12 04:07:00,31.3,16.6,29.98,NNW,345,7.2,7.2,54,0.00,,---,0.00,VWS V14.01,2013-02-12 09:07:00,
2013-02-12 04:12:00,31.3,15.6,29.98,NW,323,2.7,7.2,52,0.00,,---,0.00,VWS V14.01,2013-02-12 09:12:00,
2013-02-12 04:17:00,31.3,15.6,29.98,North,353,0.0,7.2,52,0.00,,---,0.00,VWS V14.01,2013-02-12 09:17:00,
2013-02-12 04:22:00,31.1,15.0,29.98,North,357,2.7,7.2,51,0.00,,---,0.00,VWS V14.01,2013-02-12 09:22:00,
2013-02-12 04:27:00,31.1,14.5,29.98,NW,309,3.6,7.2,50,0.00,,---,0.00,VWS V14.01,2013-02-12 09:27:00,
2013-02-12 04:32:00,31.1,15.0,29.98,North,357,0.0,8.1,51,0.00,,---,0.00,VWS V14.01,2013-02-12 09:32:00,
2013-02-12 04:37:00,31.1,14.5,29.98,North,5,6.3,8.7,50,0.00,,---,0.00,VWS V14.01,2013-02-12 09:37:00,
2013-02-12 04:42:00,31.1,14.5,29.98,NNW,348,0.0,9.6,50,0.00,,---,0.00,VWS V14.01,2013-02-12 09:42:00,
2013-02-12 04:47:00,31.1,14.5,29.98,NNW,333,0.0,9.6,50,0.00,,---,0.00,VWS V14.01,2013-02-12 09:47:00,
2013-02-12 04:52:00,31.1,14.5,29.98,WSW,257,0.0,9.6,50,0.00,,---,0.00,VWS V14.01,2013-02-12 09:52:00,
2013-02-12 04:57:00,31.1,15.0,29.98,NNW,348,0.0,12.3,51,0.00,,---,0.00,VWS V14.01,2013-02-12 09:57:00,
2013-02-12 05:02:00,31.1,15.0,29.98,North,353,6.7,8.7,51,0.00,,---,0.00,VWS V14.01,2013-02-12 10:02:00,
2013-02-12 05:07:00,31.1,15.0,29.98,North,357,2.2,8.7,51,0.00,,---,0.00,VWS V14.01,2013-02-12 10:07:00,
2013-02-12 05:12:00,31.1,15.0,29.98,North,353,0.0,8.7,51,0.00,,---,0.00,VWS V14.01,2013-02-12 10:12:00,
2013-02-12 05:17:00,31.1,15.0,30.01,NNW,344,0.0,8.7,51,0.00,,---,0.00,VWS V14.01,2013-02-12 10:17:00,
2013-02-12 05:22:00,31.1,15.0,30.01,NNW,348,0.0,8.7,51,0.00,,---,0.00,VWS V14.01,2013-02-12 10:22:00,
2013-02-12 05:27:00,31.1,15.0,30.01,NNW,341,0.0,8.7,51,0.00,,---,0.00,VWS V14.01,2013-02-12 10:27:00,
2013-02-12 05:32:00,31.1,15.0,30.01,North,353,0.0,8.7,51,0.00,,---,0.00,VWS V14.01,2013-02-12 10:32:00,
2013-02-12 05:37:00,31.1,14.5,30.01,NNW,343,4.0,8.7,50,0.00,,---,0.00,VWS V14.01,2013-02-12 10:37:00,
2013-02-12 05:42:00,31.1,14.5,30.01,NNE,20,2.7,8.7,50,0.00,,---,0.00,VWS V14.01,2013-02-12 10:42:00,
2013-02-12 05:48:00,31.1,14.5,30.01,WSW,249,8.3,8.7,50,0.00,,---,0.00,VWS V14.01,2013-02-12 10:48:00,
2013-02-12 05:53:00,31.1,15.0,30.01,NNW,340,2.2,8.7,51,0.00,,---,0.00,VWS V14.01,2013-02-12 10:53:00,
2013-02-12 05:58:00,31.1,14.5,30.01,WNW,286,0.0,8.7,50,0.00,,---,0.00,VWS V14.01,2013-02-12 10:58:00,
2013-02-12 06:03:00,31.1,14.5,30.01,NNW,342,5.4,7.2,50,0.00,,---,0.00,VWS V14.01,2013-02-12 11:03:00,
2013-02-12 06:08:00,31.1,15.0,30.01,WNW,290,0.0,8.1,51,0.00,,---,0.00,VWS V14.01,2013-02-12 11:08:00,
2013-02-12 06:13:00,31.1,15.0,30.01,NNW,340,3.1,8.1,51,0.00,,---,0.00,VWS V14.01,2013-02-12 11:13:00,
2013-02-12 06:18:00,31.1,15.5,30.01,NNW,343,2.7,8.1,52,0.00,,---,0.00,VWS V14.01,2013-02-12 11:18:00,
2013-02-12 06:23:00,31.1,15.5,30.01,NNW,334,0.0,8.7,52,0.00,,---,0.00,VWS V14.01,2013-02-12 11:23:00,
2013-02-12 06:28:00,30.9,15.8,30.01,North,353,4.0,8.7,53,0.00,,---,0.00,VWS V14.01,2013-02-12 11:28:00,
2013-02-12 06:33:00,30.9,15.3,30.01,NW,304,0.0,8.7,52,0.00,,---,0.00,VWS V14.01,2013-02-12 11:33:00,
2013-02-12 06:38:00,30.9,15.3,30.01,NNW,348,8.7,8.7,52,0.00,,---,0.00,VWS V14.01,2013-02-12 11:38:00,
2013-02-12 06:43:00,30.9,14.8,30.01,WSW,246,2.2,10.5,51,0.00,,---,0.00,VWS V14.01,2013-02-12 11:43:00,
2013-02-12 06:48:00,30.9,14.3,30.01,WSW,251,8.1,10.5,50,0.00,,---,0.00,VWS V14.01,2013-02-12 11:48:00,
2013-02-12 06:53:00,30.9,14.8,30.01,WSW,248,5.8,10.5,51,0.00,,---,0.00,VWS V14.01,2013-02-12 11:53:00,
2013-02-12 06:58:00,30.9,14.3,30.01,SW,231,8.3,10.5,50,0.00,,---,0.00,VWS V14.01,2013-02-12 11:58:00,
2013-02-12 07:03:00,30.9,14.8,30.04,North,353,4.0,4.0,51,0.00,,---,0.00,VWS V14.01,2013-02-12 12:03:00,
2013-02-12 07:08:00,30.9,14.8,30.04,WNW,282,0.0,4.0,51,0.00,,---,0.00,VWS V14.01,2013-02-12 12:08:00,
2013-02-12 07:13:00,30.7,14.7,30.04,WSW,237,0.0,4.0,51,0.00,,---,0.00,VWS V14.01,2013-02-12 12:13:00,
2013-02-12 07:18:00,30.7,15.6,30.04,North,357,0.0,4.0,53,0.00,,---,0.00,VWS V14.01,2013-02-12 12:18:00,
2013-02-12 07:23:00,30.7,15.1,30.04,North,0,0.0,8.3,52,0.00,,---,0.00,VWS V14.01,2013-02-12 12:23:00,
2013-02-12 07:28:00,30.7,15.1,30.04,North,353,4.0,8.3,52,0.00,,---,0.00,VWS V14.01,2013-02-12 12:28:00,
2013-02-12 07:33:00,30.7,15.6,30.04,West,270,0.0,8.3,53,0.00,,---,0.00,VWS V14.01,2013-02-12 12:33:00,
2013-02-12 07:38:00,30.6,15.0,30.04,WSW,249,0.0,8.3,52,0.00,,---,0.00,VWS V14.01,2013-02-12 12:38:00,
2013-02-12 07:43:00,30.6,15.0,30.04,North,357,0.0,8.3,52,0.00,,---,0.00,VWS V14.01,2013-02-12 12:43:00,
2013-02-12 07:48:00,30.6,15.0,30.04,West,266,0.0,8.3,52,0.00,,---,0.00,VWS V14.01,2013-02-12 12:48:00,
2013-02-12 07:53:00,30.6,14.5,30.04,West,277,0.0,8.3,51,0.00,,---,0.00,VWS V14.01,2013-02-12 12:53:00,
2013-02-12 07:58:00,30.6,14.5,30.04,SW,226,2.7,11.0,51,0.00,,---,0.00,VWS V14.01,2013-02-12 12:58:00,
2013-02-12 08:03:00,30.6,14.5,30.04,West,269,4.9,6.3,51,0.00,,---,0.00,VWS V14.01,2013-02-12 13:03:00,
2013-02-12 08:08:00,30.6,14.0,30.04,NNW,335,3.6,7.2,50,0.00,,---,0.00,VWS V14.01,2013-02-12 13:08:00,
2013-02-12 08:13:00,30.6,14.5,30.04,ENE,58,4.0,8.7,51,0.00,,---,0.00,VWS V14.01,2013-02-12 13:13:00,
2013-02-12 08:18:00,30.6,14.0,30.04,NNW,330,0.0,8.7,50,0.00,,---,0.00,VWS V14.01,2013-02-12 13:18:00,
2013-02-12 08:23:00,30.6,14.0,30.04,WNW,285,0.0,8.7,50,0.00,,---,0.00,VWS V14.01,2013-02-12 13:23:00,
2013-02-12 08:28:00,30.6,14.0,30.04,West,272,8.1,8.7,50,0.00,,---,0.00,VWS V14.01,2013-02-12 13:28:00,
2013-02-12 08:33:00,30.6,13.5,30.04,West,273,0.0,8.7,49,0.00,,---,0.00,VWS V14.01,2013-02-12 13:33:00,
2013-02-12 08:39:00,30.6,13.5,30.04,North,350,2.2,8.7,49,0.00,,---,0.00,VWS V14.01,2013-02-12 13:39:00,
2013-02-12 08:44:00,30.6,13.5,30.04,West,271,2.7,10.1,49,0.00,,---,0.00,VWS V14.01,2013-02-12 13:44:00,
2013-02-12 08:49:00,30.6,14.0,30.04,North,0,3.1,10.1,50,0.00,,---,0.00,VWS V14.01,2013-02-12 13:49:00,
2013-02-12 08:54:00,30.7,14.2,30.04,North,9,0.0,10.1,50,0.00,,---,0.00,VWS V14.01,2013-02-12 13:54:00,
2013-02-12 08:59:00,30.7,14.2,30.04,North,353,3.6,10.1,50,0.00,,---,0.00,VWS V14.01,2013-02-12 13:59:00,
2013-02-12 09:04:00,30.7,14.7,30.04,North,357,7.6,8.7,51,0.00,,---,0.00,VWS V14.01,2013-02-12 14:04:00,
2013-02-12 09:09:00,30.7,14.7,30.04,NNW,337,8.1,8.7,51,0.00,,---,0.00,VWS V14.01,2013-02-12 14:09:00,
2013-02-12 09:14:00,30.7,15.1,30.04,NNW,335,0.0,8.7,52,0.00,,---,0.00,VWS V14.01,2013-02-12 14:14:00,
2013-02-12 09:19:00,30.7,15.6,30.04,NNE,14,2.7,8.7,53,0.00,,---,0.00,VWS V14.01,2013-02-12 14:19:00,
2013-02-12 09:24:00,30.7,15.6,30.04,NW,309,0.0,8.7,53,0.00,,---,0.00,VWS V14.01,2013-02-12 14:24:00,
2013-02-12 09:29:00,30.9,15.8,30.04,NNE,13,3.1,8.7,53,0.00,,---,0.00,VWS V14.01,2013-02-12 14:29:00,
2013-02-12 09:34:00,30.9,16.2,30.07,WNW,303,0.0,8.7,54,0.00,,---,0.00,VWS V14.01,2013-02-12 14:34:00,
2013-02-12 09:39:00,30.9,16.2,30.07,NNW,341,5.8,8.7,54,0.00,,---,0.00,VWS V14.01,2013-02-12 14:39:00,
2013-02-12 09:44:00,31.1,16.4,30.07,North,357,0.0,8.7,54,0.00,,---,0.00,VWS V14.01,2013-02-12 14:44:00,
2013-02-12 09:49:00,31.1,15.9,30.07,West,268,0.0,8.7,53,0.00,,---,0.00,VWS V14.01,2013-02-12 14:49:00,
2013-02-12 09:54:00,31.1,15.9,30.07,North,10,0.0,8.7,53,0.00,,---,0.00,VWS V14.01,2013-02-12 14:54:00,
2013-02-12 09:59:00,31.1,15.5,30.07,NNE,18,0.0,8.7,52,0.00,,---,0.00,VWS V14.01,2013-02-12 14:59:00,
2013-02-12 10:04:00,31.1,15.5,30.07,North,357,0.0,5.4,52,0.00,,---,0.00,VWS V14.01,2013-02-12 15:04:00,
2013-02-12 10:09:00,31.3,15.6,30.07,North,0,0.0,7.2,52,0.00,,---,0.00,VWS V14.01,2013-02-12 15:09:00,
2013-02-12 10:14:00,31.3,15.6,30.07,NNW,327,0.0,7.2,52,0.00,,---,0.00,VWS V14.01,2013-02-12 15:14:00,
2013-02-12 10:19:00,31.3,15.6,30.07,North,0,0.0,7.6,52,0.00,,---,0.00,VWS V14.01,2013-02-12 15:19:00,
2013-02-12 10:24:00,31.3,16.1,30.07,WNW,300,0.0,7.6,53,0.00,,---,0.00,VWS V14.01,2013-02-12 15:24:00,
2013-02-12 10:29:00,31.3,16.6,30.07,WNW,289,0.0,7.6,54,0.00,,---,0.00,VWS V14.01,2013-02-12 15:29:00,
2013-02-12 10:34:00,31.3,16.6,30.07,WNW,298,2.2,7.6,54,0.00,,---,0.00,VWS V14.01,2013-02-12 15:34:00,
2013-02-12 10:39:00,31.3,17.0,30.07,WSW,248,2.7,7.6,55,0.00,,---,0.00,VWS V14.01,2013-02-12 15:39:00,
2013-02-12 10:44:00,31.3,16.6,30.07,West,279,0.0,7.6,54,0.00,,---,0.00,VWS V14.01,2013-02-12 15:44:00,
2013-02-12 10:49:00,31.3,16.6,30.04,WSW,256,0.0,7.6,54,0.00,,---,0.00,VWS V14.01,2013-02-12 15:49:00,
2013-02-12 10:54:00,31.3,16.6,30.04,WSW,254,0.0,7.6,54,0.00,,---,0.00,VWS V14.01,2013-02-12 15:54:00,
2013-02-12 10:59:00,31.5,16.8,30.04,North,6,3.6,3.6,54,0.00,,---,0.00,VWS V14.01,2013-02-12 15:59:00,
2013-02-12 11:04:00,31.5,16.3,30.07,SW,235,0.0,3.6,53,0.00,,---,0.00,VWS V14.01,2013-02-12 16:04:00,
2013-02-12 11:09:00,31.6,16.5,30.07,North,357,0.0,5.8,53,0.00,,---,0.00,VWS V14.01,2013-02-12 16:09:00,
2013-02-12 11:15:00,32.0,16.3,30.07,SW,227,0.0,5.8,52,0.00,,---,0.00,VWS V14.01,2013-02-12 16:15:00,
2013-02-12 11:20:00,32.0,16.3,30.04,SSW,192,0.0,5.8,52,0.00,,---,0.00,VWS V14.01,2013-02-12 16:20:00,
2013-02-12 11:25:00,31.8,16.1,30.04,North,353,0.0,5.8,52,0.00,,---,0.00,VWS V14.01,2013-02-12 16:25:00,
2013-02-12 11:30:00,32.2,17.0,30.04,NW,321,0.0,5.8,53,0.00,,---,0.00,VWS V14.01,2013-02-12 16:30:00,
2013-02-12 11:35:00,32.4,16.6,30.04,NNW,333,0.0,5.8,52,0.00,,---,0.00,VWS V14.01,2013-02-12 16:35:00,
2013-02-12 11:40:00,32.5,16.3,30.04,WSW,248,3.6,8.1,51,0.00,,---,0.00,VWS V14.01,2013-02-12 16:40:00,
2013-02-12 11:45:00,32.5,15.3,30.04,WNW,292,0.0,8.1,49,0.00,,---,0.00,VWS V14.01,2013-02-12 16:45:00,
2013-02-12 11:50:00,32.4,15.7,30.04,West,263,3.1,8.1,50,0.00,,---,0.00,VWS V14.01,2013-02-12 16:50:00,
2013-02-12 11:55:00,32.2,16.0,30.04,SSW,211,0.0,8.1,51,0.00,,---,0.00,VWS V14.01,2013-02-12 16:55:00,
2013-02-12 12:00:00,32.4,16.6,30.04,SW,218,0.0,0.0,52,0.00,,---,0.00,VWS V14.01,2013-02-12 17:00:00,
2013-02-12 12:05:00,32.5,17.3,30.04,WSW,242,0.0,3.6,53,0.00,,---,0.00,VWS V14.01,2013-02-12 17:05:00,
2013-02-12 12:10:00,32.4,17.1,30.04,WSW,237,0.0,5.8,53,0.00,,---,0.00,VWS V14.01,2013-02-12 17:10:00,
2013-02-12 12:15:00,32.2,16.5,30.07,WSW,253,0.0,5.8,52,0.00,,---,0.00,VWS V14.01,2013-02-12 17:15:00,
2013-02-12 12:20:00,32.2,17.0,30.07,North,10,2.2,5.8,53,0.00,,---,0.00,VWS V14.01,2013-02-12 17:20:00,
2013-02-12 12:25:00,32.2,16.5,30.07,West,281,0.0,5.8,52,0.00,,---,0.00,VWS V14.01,2013-02-12 17:25:00,
2013-02-12 12:30:00,32.4,16.6,30.04,NNE,20,0.0,5.8,52,0.00,,---,0.00,VWS V14.01,2013-02-12 17:30:00,
2013-02-12 12:35:00,32.5,16.3,30.04,NNE,16,0.0,5.8,51,0.00,,---,0.00,VWS V14.01,2013-02-12 17:35:00,
2013-02-12 12:40:00,32.7,15.5,30.04,SW,218,3.1,5.8,49,0.00,,---,0.00,VWS V14.01,2013-02-12 17:40:00,
2013-02-12 12:45:00,32.9,15.1,30.04,WSW,249,3.6,6.3,48,0.00,,---,0.00,VWS V14.01,2013-02-12 17:45:00,
2013-02-12 12:50:00,33.1,15.3,30.04,NW,306,0.0,6.3,48,0.00,,---,0.00,VWS V14.01,2013-02-12 17:50:00,
2013-02-12 12:55:00,33.6,15.8,30.04,WSW,258,0.0,6.3,48,0.00,,---,0.00,VWS V14.01,2013-02-12 17:55:00,
2013-02-12 13:00:00,33.8,16.0,30.04,WNW,284,0.0,3.6,48,0.00,,---,0.00,VWS V14.01,2013-02-12 18:00:00,
2013-02-12 13:05:00,33.8,15.4,30.04,WSW,252,2.2,10.1,46,0.00,,---,0.00,VWS V14.01,2013-02-12 18:05:00,
2013-02-12 13:10:00,34.0,15.1,30.04,North,357,4.9,10.1,45,0.00,,---,0.00,VWS V14.01,2013-02-12 18:10:00,
2013-02-12 13:15:00,34.0,15.1,30.01,NNE,14,3.6,10.1,45,0.00,,---,0.00,VWS V14.01,2013-02-12 18:15:00,
2013-02-12 13:21:00,34.2,15.2,30.01,North,4,0.0,10.1,45,0.00,,---,0.00,VWS V14.01,2013-02-12 18:21:00,
2013-02-12 13:26:00,34.7,15.7,30.01,WNW,296,0.0,10.1,45,0.00,,---,0.00,VWS V14.01,2013-02-12 18:26:00,
2013-02-12 13:31:00,34.9,16.4,29.98,North,353,0.0,10.1,46,0.00,,---,0.00,VWS V14.01,2013-02-12 18:31:00,
2013-02-12 13:36:00,35.1,15.5,29.98,West,266,4.0,10.1,44,0.00,,---,0.00,VWS V14.01,2013-02-12 18:36:00,
2013-02-12 13:41:00,34.7,15.2,29.98,SW,235,0.0,10.1,44,0.00,,---,0.00,VWS V14.01,2013-02-12 18:41:00,
2013-02-12 13:46:00,34.5,15.6,29.98,SW,230,0.0,10.1,45,0.00,,---,0.00,VWS V14.01,2013-02-12 18:46:00,
2013-02-12 13:51:00,34.9,15.9,29.98,SSW,199,0.0,10.1,45,0.00,,---,0.00,VWS V14.01,2013-02-12 18:51:00,
2013-02-12 13:56:00,35.1,16.1,29.98,NNW,333,0.0,10.1,45,0.00,,---,0.00,VWS V14.01,2013-02-12 18:56:00,
2013-02-12 14:01:00,35.1,16.1,29.98,North,0,0.0,2.7,45,0.00,,---,0.00,VWS V14.01,2013-02-12 19:01:00,
2013-02-12 14:06:00,35.1,15.5,29.98,WSW,257,2.7,3.6,44,0.00,,---,0.00,VWS V14.01,2013-02-12 19:06:00,
2013-02-12 14:11:00,34.9,15.3,29.98,West,264,2.7,4.5,44,0.00,,---,0.00,VWS V14.01,2013-02-12 19:11:00,
2013-02-12 14:16:00,34.7,15.7,29.95,NNW,333,2.2,6.3,45,0.00,,---,0.00,VWS V14.01,2013-02-12 19:16:00,
2013-02-12 14:21:00,34.7,15.7,29.95,WSW,255,0.0,6.3,45,0.00,,---,0.00,VWS V14.01,2013-02-12 19:21:00,
2013-02-12 14:26:00,34.7,16.3,29.95,WSW,240,0.0,6.3,46,0.00,,---,0.00,VWS V14.01,2013-02-12 19:26:00,
2013-02-12 14:31:00,34.7,16.3,29.98,SW,236,0.0,7.6,46,0.00,,---,0.00,VWS V14.01,2013-02-12 19:31:00,
2013-02-12 14:36:00,34.3,15.4,29.98,West,279,0.0,7.6,45,0.00,,---,0.00,VWS V14.01,2013-02-12 19:36:00,
2013-02-12 14:41:00,34.2,15.8,29.98,WSW,243,0.0,7.6,46,0.00,,---,0.00,VWS V14.01,2013-02-12 19:41:00,
2013-02-12 14:46:00,34.0,15.1,29.98,NNW,330,0.0,7.6,45,0.00,,---,0.00,VWS V14.01,2013-02-12 19:46:00,
2013-02-12 14:51:00,34.3,16.5,29.98,NW,310,0.0,7.6,48,0.00,,---,0.00,VWS V14.01,2013-02-12 19:51:00,
2013-02-12 14:56:00,34.3,15.9,29.98,WSW,250,3.1,7.6,46,0.00,,---,0.00,VWS V14.01,2013-02-12 19:56:00,
2013-02-12 15:01:00,34.5,16.1,29.98,WNW,283,0.0,0.0,46,0.00,,---,0.00,VWS V14.01,2013-02-12 20:01:00,
2013-02-12 15:06:00,34.5,16.1,29.98,SW,232,0.0,4.0,46,0.00,,---,0.00,VWS V14.01,2013-02-12 20:06:00,
2013-02-12 15:11:00,34.5,16.1,29.98,NW,321,0.0,4.0,46,0.00,,---,0.00,VWS V14.01,2013-02-12 20:11:00,
2013-02-12 15:16:00,34.5,16.1,29.98,NNE,31,0.0,4.0,46,0.00,,---,0.00,VWS V14.01,2013-02-12 20:16:00,
2013-02-12 15:21:00,34.3,15.9,29.98,WNW,290,0.0,4.9,46,0.00,,---,0.00,VWS V14.01,2013-02-12 20:21:00,
2013-02-12 15:26:00,34.3,15.9,29.98,North,357,2.2,4.9,46,0.00,,---,0.00,VWS V14.01,2013-02-12 20:26:00,
2013-02-12 15:31:00,34.3,15.9,29.98,SW,232,0.0,4.9,46,0.00,,---,0.00,VWS V14.01,2013-02-12 20:31:00,
2013-02-12 15:36:00,34.5,16.1,29.98,SW,230,0.0,4.9,46,0.00,,---,0.00,VWS V14.01,2013-02-12 20:36:00,
2013-02-12 15:41:00,34.3,15.9,29.98,North,353,0.0,4.9,46,0.00,,---,0.00,VWS V14.01,2013-02-12 20:41:00,
2013-02-12 15:46:00,34.3,15.9,29.98,NNE,31,0.0,4.9,46,0.00,,---,0.00,VWS V14.01,2013-02-12 20:46:00,
2013-02-12 15:51:00,34.3,16.5,29.98,SW,235,0.0,4.9,48,0.00,,---,0.00,VWS V14.01,2013-02-12 20:51:00,
2013-02-12 15:56:00,34.5,16.1,29.98,WSW,247,2.2,4.9,46,0.00,,---,0.00,VWS V14.01,2013-02-12 20:56:00,
2013-02-12 16:01:00,34.5,15.6,29.98,West,278,0.0,4.9,45,0.00,,---,0.00,VWS V14.01,2013-02-12 21:01:00,
2013-02-12 16:06:00,34.3,15.9,29.98,WSW,257,2.2,4.9,46,0.00,,---,0.00,VWS V14.01,2013-02-12 21:06:00,
2013-02-12 16:11:00,34.5,16.1,29.98,North,353,0.0,4.9,46,0.00,,---,0.00,VWS V14.01,2013-02-12 21:11:00,
2013-02-12 16:16:00,34.5,16.1,29.98,WSW,254,0.0,4.9,46,0.00,,---,0.00,VWS V14.01,2013-02-12 21:16:00,
2013-02-12 16:21:00,34.3,15.9,29.98,WNW,284,0.0,4.9,46,0.00,,---,0.00,VWS V14.01,2013-02-12 21:21:00,
2013-02-12 16:26:00,34.3,15.9,29.98,North,357,3.6,4.9,46,0.00,,---,0.00,VWS V14.01,2013-02-12 21:26:00,
2013-02-12 16:32:00,34.3,15.9,29.98,West,278,0.0,4.9,46,0.00,,---,0.00,VWS V14.01,2013-02-12 21:32:00,
2013-02-12 16:37:00,34.3,16.5,29.98,WNW,285,2.7,4.9,48,0.00,,---,0.00,VWS V14.01,2013-02-12 21:37:00,
2013-02-12 16:42:00,34.3,16.5,29.98,WSW,254,0.0,5.8,48,0.00,,---,0.00,VWS V14.01,2013-02-12 21:42:00,
2013-02-12 16:47:00,34.3,15.9,29.98,NW,319,0.0,5.8,46,0.00,,---,0.00,VWS V14.01,2013-02-12 21:47:00,
2013-02-12 16:52:00,34.2,16.3,29.98,SW,229,0.0,5.8,48,0.00,,---,0.00,VWS V14.01,2013-02-12 21:52:00,
2013-02-12 16:57:00,34.2,16.3,29.98,NW,319,0.0,5.8,48,0.00,,---,0.00,VWS V14.01,2013-02-12 21:57:00,
2013-02-12 17:02:00,34.0,16.1,29.98,NW,309,0.0,2.7,48,0.00,,---,0.00,VWS V14.01,2013-02-12 22:02:00,
2013-02-12 17:07:00,34.0,16.1,29.98,NNW,337,0.0,5.8,48,0.00,,---,0.00,VWS V14.01,2013-02-12 22:07:00,
2013-02-12 17:12:00,34.0,17.2,29.98,NNW,337,0.0,5.8,50,0.00,,---,0.00,VWS V14.01,2013-02-12 22:12:00,
2013-02-12 17:17:00,33.8,17.0,29.98,WSW,244,0.0,5.8,50,0.00,,---,0.00,VWS V14.01,2013-02-12 22:17:00,
2013-02-12 17:22:00,33.6,16.8,29.98,NW,315,0.0,5.8,50,0.00,,---,0.00,VWS V14.01,2013-02-12 22:22:00,
2013-02-12 17:27:00,33.6,17.3,29.98,WSW,250,0.0,5.8,51,0.00,,---,0.00,VWS V14.01,2013-02-12 22:27:00,
2013-02-12 17:32:00,33.6,16.8,29.98,NW,314,0.0,5.8,50,0.00,,---,0.00,VWS V14.01,2013-02-12 22:32:00,
2013-02-12 17:37:00,33.6,16.8,29.98,NW,314,0.0,5.8,50,0.00,,---,0.00,VWS V14.01,2013-02-12 22:37:00,
2013-02-12 17:42:00,33.4,16.7,29.98,NW,314,0.0,5.8,50,0.00,,---,0.00,VWS V14.01,2013-02-12 22:42:00,
2013-02-12 17:47:00,33.4,17.2,29.98,WSW,237,0.0,5.8,51,0.00,,---,0.00,VWS V14.01,2013-02-12 22:47:00,
2013-02-12 17:52:00,33.3,17.0,29.98,WSW,251,0.0,5.8,51,0.00,,---,0.00,VWS V14.01,2013-02-12 22:52:00,
2013-02-12 17:57:00,33.3,17.0,29.98,North,353,0.0,5.8,51,0.00,,---,0.00,VWS V14.01,2013-02-12 22:57:00,
2013-02-12 18:02:00,33.3,17.5,29.98,West,275,0.0,0.0,52,0.00,,---,0.00,VWS V14.01,2013-02-12 23:02:00,
2013-02-12 18:07:00,33.1,17.3,29.98,NNW,330,0.0,0.0,52,0.00,,---,0.00,VWS V14.01,2013-02-12 23:07:00,
2013-02-12 18:12:00,33.1,17.3,29.98,NNW,330,0.0,0.0,52,0.00,,---,0.00,VWS V14.01,2013-02-12 23:12:00,
2013-02-12 18:17:00,33.1,17.8,29.98,NNW,330,0.0,0.0,53,0.00,,---,0.00,VWS V14.01,2013-02-12 23:17:00,
2013-02-12 18:22:00,32.9,17.1,29.98,NNW,345,0.0,5.4,52,0.00,,---,0.00,VWS V14.01,2013-02-12 23:22:00,
2013-02-12 18:27:00,32.9,17.1,29.98,North,353,0.0,5.4,52,0.00,,---,0.00,VWS V14.01,2013-02-12 23:27:00,
2013-02-12 18:32:00,32.9,17.1,29.98,North,0,4.0,5.4,52,0.00,,---,0.00,VWS V14.01,2013-02-12 23:32:00,
2013-02-12 18:37:00,32.7,17.0,29.98,North,0,0.0,5.4,52,0.00,,---,0.00,VWS V14.01,2013-02-12 23:37:00,
2013-02-12 18:42:00,32.7,17.5,29.98,North,0,0.0,5.4,53,0.00,,---,0.00,VWS V14.01,2013-02-12 23:42:00,
2013-02-12 18:47:00,32.7,17.5,29.98,North,5,0.0,5.4,53,0.00,,---,0.00,VWS V14.01,2013-02-12 23:47:00,
2013-02-12 18:52:00,32.5,16.8,29.98,North,4,2.7,5.4,52,0.00,,---,0.00,VWS V14.01,2013-02-12 23:52:00,
2013-02-12 18:57:00,32.5,16.8,29.98,North,357,0.0,5.4,52,0.00,,---,0.00,VWS V14.01,2013-02-12 23:57:00,
2013-02-12 19:02:00,32.4,16.6,29.95,North,2,0.0,3.1,52,0.00,,---,0.00,VWS V14.01,2013-02-13 00:02:00,
2013-02-12 19:07:00,32.4,16.6,29.95,North,353,0.0,3.6,52,0.00,,---,0.00,VWS V14.01,2013-02-13 00:07:00,
2013-02-12 19:13:00,32.2,16.5,29.95,North,357,0.0,3.6,52,0.00,,---,0.00,VWS V14.01,2013-02-13 00:13:00,
2013-02-12 19:18:00,32.2,16.0,29.98,North,0,0.0,7.6,51,0.00,,---,0.00,VWS V14.01,2013-02-13 00:18:00,
2013-02-12 19:23:00,32.2,16.0,29.98,North,3,0.0,7.6,51,0.00,,---,0.00,VWS V14.01,2013-02-13 00:23:00,
2013-02-12 19:28:00,32.2,16.0,29.98,NNE,14,0.0,7.6,51,0.00,,---,0.00,VWS V14.01,2013-02-13 00:28:00,
2013-02-12 19:33:00,32.0,15.8,29.98,North,11,0.0,7.6,51,0.00,,---,0.00,VWS V14.01,2013-02-13 00:33:00,
2013-02-12 19:38:00,32.0,15.8,29.98,North,11,0.0,7.6,51,0.00,,---,0.00,VWS V14.01,2013-02-13 00:38:00,
2013-02-12 19:43:00,32.0,15.8,29.98,North,11,0.0,7.6,51,0.00,,---,0.00,VWS V14.01,2013-02-13 00:43:00,
2013-02-12 19:48:00,31.8,15.7,29.98,North,0,0.0,7.6,51,0.00,,---,0.00,VWS V14.01,2013-02-13 00:48:00,
2013-02-12 19:53:00,31.8,15.7,29.98,North,0,0.0,7.6,51,0.00,,---,0.00,VWS V14.01,2013-02-13 00:53:00,
2013-02-12 19:58:00,31.8,15.7,29.98,North,0,0.0,7.6,51,0.00,,---,0.00,VWS V14.01,2013-02-13 00:58:00,
2013-02-12 20:03:00,31.6,15.5,29.98,North,0,0.0,0.0,51,0.00,,---,0.00,VWS V14.01,2013-02-13 01:03:00,
2013-02-12 20:08:00,31.6,15.5,29.98,North,0,0.0,0.0,51,0.00,,---,0.00,VWS V14.01,2013-02-13 01:08:00,
2013-02-12 20:13:00,31.5,15.3,29.98,North,0,0.0,0.0,51,0.00,,---,0.00,VWS V14.01,2013-02-13 01:13:00,
2013-02-12 20:18:00,31.5,15.8,29.98,North,0,0.0,0.0,52,0.00,,---,0.00,VWS V14.01,2013-02-13 01:18:00,
2013-02-12 20:23:00,31.3,15.6,29.98,North,0,0.0,0.0,52,0.00,,---,0.00,VWS V14.01,2013-02-13 01:23:00,
2013-02-12 20:28:00,31.3,15.6,29.98,North,2,4.0,4.0,52,0.00,,---,0.00,VWS V14.01,2013-02-13 01:28:00,
2013-02-12 20:33:00,31.1,15.9,29.95,NNE,12,3.1,4.0,53,0.00,,---,0.00,VWS V14.01,2013-02-13 01:33:00,
2013-02-12 20:38:00,31.1,15.9,29.95,North,2,0.0,4.9,53,0.00,,---,0.00,VWS V14.01,2013-02-13 01:38:00,
2013-02-12 20:43:00,31.1,15.9,29.95,NNE,13,0.0,4.9,53,0.00,,---,0.00,VWS V14.01,2013-02-13 01:43:00,
2013-02-12 20:48:00,30.9,15.8,29.95,NNE,13,0.0,4.9,53,0.00,,---,0.00,VWS V14.01,2013-02-13 01:48:00,
2013-02-12 20:53:00,30.9,15.8,29.95,NNE,24,2.7,4.9,53,0.00,,---,0.00,VWS V14.01,2013-02-13 01:53:00,
2013-02-12 20:58:00,30.7,15.6,29.95,NNE,24,0.0,4.9,53,0.00,,---,0.00,VWS V14.01,2013-02-13 01:58:00,
2013-02-12 21:03:00,30.6,15.9,29.95,NNE,24,0.0,0.0,54,0.00,,---,0.00,VWS V14.01,2013-02-13 02:03:00,
2013-02-12 21:08:00,30.6,15.9,29.95,NNE,24,0.0,0.0,54,0.00,,---,0.00,VWS V14.01,2013-02-13 02:08:00,
2013-02-12 21:13:00,30.6,15.9,29.95,NNE,24,0.0,0.0,54,0.00,,---,0.00,VWS V14.01,2013-02-13 02:13:00,
2013-02-12 21:18:00,30.4,15.7,29.95,NNE,20,3.1,4.9,54,0.00,,---,0.00,VWS V14.01,2013-02-13 02:18:00,
2013-02-12 21:23:00,30.4,15.7,29.95,NNE,15,3.1,5.4,54,0.00,,---,0.00,VWS V14.01,2013-02-13 02:23:00,
2013-02-12 21:28:00,30.2,16.0,29.95,NNE,15,0.0,5.4,55,0.00,,---,0.00,VWS V14.01,2013-02-13 02:28:00,
2013-02-12 21:33:00,30.2,16.0,29.95,NNE,15,2.7,5.4,55,0.00,,---,0.00,VWS V14.01,2013-02-13 02:33:00,
2013-02-12 21:38:00,30.0,15.9,29.95,NNE,15,0.0,5.4,55,0.00,,---,0.00,VWS V14.01,2013-02-13 02:38:00,
2013-02-12 21:43:00,29.8,15.7,29.95,North,6,0.0,5.4,55,0.00,,---,0.00,VWS V14.01,2013-02-13 02:43:00,
2013-02-12 21:48:00,29.8,16.1,29.95,North,6,0.0,5.4,56,0.00,,---,0.00,VWS V14.01,2013-02-13 02:48:00,
2013-02-12 21:54:00,29.8,16.1,29.95,North,1,0.0,5.4,56,0.00,,---,0.00,VWS V14.01,2013-02-13 02:54:00,
2013-02-12 21:59:00,29.8,16.1,29.95,North,357,0.0,5.4,56,0.00,,---,0.00,VWS V14.01,2013-02-13 02:59:00,
2013-02-12 22:04:00,29.8,16.1,29.95,NNW,346,0.0,0.0,56,0.00,,---,0.00,VWS V14.01,2013-02-13 03:04:00,
2013-02-12 22:09:00,29.8,15.7,29.95,North,353,0.0,0.0,55,0.00,,---,0.00,VWS V14.01,2013-02-13 03:09:00,
2013-02-12 22:14:00,29.7,15.5,29.95,North,353,0.0,0.0,55,0.00,,---,0.00,VWS V14.01,2013-02-13 03:14:00,
2013-02-12 22:19:00,29.7,15.5,29.95,North,357,0.0,0.0,55,0.00,,---,0.00,VWS V14.01,2013-02-13 03:19:00,
2013-02-12 22:24:00,29.7,15.5,29.95,North,357,0.0,0.0,55,0.00,,---,0.00,VWS V14.01,2013-02-13 03:24:00,
2013-02-12 22:29:00,29.5,15.4,29.95,North,357,0.0,0.0,55,0.00,,---,0.00,VWS V14.01,2013-02-13 03:29:00,
2013-02-12 22:34:00,29.5,15.8,29.95,North,357,0.0,0.0,56,0.00,,---,0.00,VWS V14.01,2013-02-13 03:34:00,
2013-02-12 22:39:00,29.5,15.8,29.95,North,357,0.0,0.0,56,0.00,,---,0.00,VWS V14.01,2013-02-13 03:39:00,
2013-02-12 22:44:00,29.5,15.8,29.95,North,357,0.0,0.0,56,0.00,,---,0.00,VWS V14.01,2013-02-13 03:44:00,
2013-02-12 22:49:00,29.5,15.8,29.95,North,357,0.0,0.0,56,0.00,,---,0.00,VWS V14.01,2013-02-13 03:49:00,
2013-02-12 22:54:00,29.5,15.8,29.95,North,357,0.0,0.0,56,0.00,,---,0.00,VWS V14.01,2013-02-13 03:54:00,
2013-02-12 22:59:00,29.5,15.8,29.95,North,357,0.0,0.0,56,0.00,,---,0.00,VWS V14.01,2013-02-13 03:59:00,
2013-02-12 23:04:00,29.5,15.4,29.95,North,3,2.2,4.9,55,0.00,,---,0.00,VWS V14.01,2013-02-13 04:04:00,
2013-02-12 23:09:00,29.5,15.4,29.95,NNE,16,3.6,5.8,55,0.00,,---,0.00,VWS V14.01,2013-02-13 04:09:00,
2013-02-12 23:14:00,29.5,14.4,29.95,NW,311,0.0,5.8,53,0.00,,---,0.00,VWS V14.01,2013-02-13 04:14:00,
2013-02-12 23:19:00,29.5,14.4,29.95,NW,312,0.0,5.8,53,0.00,,---,0.00,VWS V14.01,2013-02-13 04:19:00,
2013-02-12 23:24:00,29.5,14.9,29.95,NW,312,0.0,5.8,54,0.00,,---,0.00,VWS V14.01,2013-02-13 04:24:00,
2013-02-12 23:29:00,29.5,14.9,29.95,North,5,0.0,5.8,54,0.00,,---,0.00,VWS V14.01,2013-02-13 04:29:00,
2013-02-12 23:34:00,29.5,14.9,29.92,North,8,0.0,7.6,54,0.00,,---,0.00,VWS V14.01,2013-02-13 04:34:00,
2013-02-12 23:39:00,29.5,14.9,29.92,North,0,3.1,7.6,54,0.00,,---,0.00,VWS V14.01,2013-02-13 04:39:00,
2013-02-12 23:44:00,29.3,14.7,29.92,NNE,20,0.0,7.6,54,0.00,,---,0.00,VWS V14.01,2013-02-13 04:44:00,
2013-02-12 23:49:00,29.3,14.7,29.92,West,273,3.6,7.6,54,0.00,,---,0.00,VWS V14.01,2013-02-13 04:49:00,
2013-02-12 23:54:00,29.3,14.7,29.92,West,278,0.0,7.6,54,0.00,,---,0.00,VWS V14.01,2013-02-13 04:54:00,
2013-02-12 23:59:00,29.1,14.6,29.92,NNE,13,2.7,2.7,54,0.00,,---,0.00,VWS V14.01,2013-02-13 04:59:00,